ZHONGXING-2E

Last updated on Mon Jul 07 2025 00:02:47 GMT+0000 (Coordinated Universal Time)

1 49062U 21071A 25187.59295081 -.00000275 00000+0 00000+0 0 9997 2 49062 0.0501 201.4441 0002488 310.2511 84.6199 1.00273638 14574
UTC large
Height (km)
Speed (km/s)
/
Latitude / Longitude
Inclination (degrees)
Orbital Period (minutes)
Azimuth
Elevation
Range (km)
Doppler Factor

Next 0 passes for location: London (51.5072 / 0.1276)

Sorry there are no passes over London.